P/2018 A5 ( PanSTARRS )

Japanese version
Home page
Updated on March 1, 2018

---------------------------------------------------------------------

* Profile

Discovery Date January 13, 2018
Magnitude 21.4 mag
Discoverer Pan-STARRS 1 telescope (Haleakala)

* Orbital Elements

Epoch 2017 Sept. 4.0 TT = JDT 2458000.5
T 2017 Sept. 23.83141 TT                                MPCW
q   2.6938279            (2000.0)            P               Q
n   0.07340554     Peri.  359.68206     +0.04295812     -0.91564718
a   5.6491552      Node    87.82932     +0.91751571     -0.12215834
e   0.5231450      Incl.   23.57617     +0.39537265     +0.38297204
P  13.43
From 34 observations 2017 Nov. 21-2018 Jan. 20, mean residual 0".3.

* Magnitudes Graph

        m1 = 15.0 + 5 log d + 10.0 log r

---------------------------------------------------------------------

The orbital elements are published on M.P.E.C. 2018-D91.
The magnitudes graphs are made with Comet for Windows.

---------------------------------------------------------------------

Copyright(C) Seiichi Yoshida (comet@aerith.net). All rights reserved.